Weather in Fodele

Greece     35°22′55″N   24°57′29″E
temp.,
°C
wind,
m/s
gust,
m/s
humid.,
%
clouds,
%
prec.,
mm/h
press.,
hPa
HPBL,
m
13 april, tue
tue1300:00+14ssw01475 0.0 1022196
03:00+14se114692 0.0 1021161
06:00+15se214145 0.0 1020168
09:00+15se22377 0.0 1020160
12:00+16ene33435 0.0 1020138
15:00+16ne22455 0.0 1020141
18:00+16ne22555 0.0 1018166
21:00+16e226069 0.0 101874
14 april, wed
wed1400:00+16sse3462100 0.0 101891
03:00+17sw235585 0.0 101740
06:00+16ssw125725 0.0 101628
09:00+16ese23575 0.0 101758
12:00+17ene346129 0.0 101676
15:00+17ne6670100 0.0 1016175
18:00+17n3471100 0.0 1015118
21:00+17ne22686 0.0 101524
15 april, thu
thu1500:00+17ne22700 0.0 101533
03:00+16ene12700 0.0 101574
06:00+16nw22745 0.0 1015167
09:00+16nnw22740 0.0 1016209
12:00+16nnw33725 0.0 1016209
15:00+15wnw5568100 0.0 1016325
18:00+16wnw5664100 0.0 1015376
21:00+15wnw5667100 0.0 1016430
16 april, fri
fri1600:00+16wnw5668100 0.0 1016467
03:00+15wnw3468100 0.0 1015434
06:00+15ssw11675 0.0 1014262
09:00+15nne116734 0.0 1015269
12:00+15ne227193 0.0 1016283
15:00+16ne447648 0.0 1016341
18:00+16ene5571100 0.0 1015442
21:00+16e5676100 0.0 1015382
17 april, sat
sat1700:00+16e6879100 0.0 1013370
03:00+17e4475100 0.1 101294
06:00+16ese9117999 0.0 1009268
09:00+18se71062100 0.0 1008139
12:00+21sse11144786 0.0 1007139
15:00+22s795110 0.4 100666
18:00+19n35735 0.0 100659
21:00+17nw118017 0.0 100712